Back to catalog

STARLINK-33607

AliveCommunicationsVLEO
NORAD 63323·PAYLOAD·🇺🇸 United States

Launched Mar 18, 2025 from Cape Canaveral Space Force Station

Loading…

Next Passes (next 24 hours)

TLE

FreshSource: CelesTrak SupGP

Epoch: Sep 14, 2026, 14:57 UTC

1 63323C 25057S   26257.62340278 -.00035182  00000+0 -12748-2 0  2571
2 63323  43.0007  43.8240 0001328 265.0735  64.1365 15.27584364    17

Track STARLINK-33607 in real time with AllMySat

Download on the App Store